Vorticity
27 3 -2 -5 1 16 -2 12 12 14 -3 18 10 8 15 1 15 4 4 14 13 20 1 7 11 8 1 0 2 1 -1 -2 1 -1 -2 1 -0 -2 1 3 -1 3 -1 11
6 7 7 4 5 9 14 2 14 18 12 5 -1 5 9 13 4 11 2 -4 7 17 18 4 4 3 4 3 11 13 9 1 -1 -1 1 -1 3 -1 -1 -1 0 -1 0 2
-3 7 12 4 2 3 8 -3 -7 -4 25 17 7 12 10 6 3 0 11 15 2 9 18 25 9 2 3 -1 -1 1 6 11 11 10 7 -2 2 2 4 6 1 1 2 2
25 -6 -12 37 4 6 6 7 8 -3 -13 -0 -20 3 8 8 7 18 16 2 1 6 13 8 14 16 3 9 2 2 1 0 2 3 7 5 5 3 3 -1 2 4 3 -1
5 31 36 -5 17 11 0 12 11 19 6 -1 -0 2 15 8 5 3 4 16 22 2 7 8 8 17 17 13 -1 -2 -1 0 1 2 6 6 4 5 -2 15 17 12 6 7
-17 8 36 26 -4 21 22 3 10 2 3 21 6 -15 45 21 3 5 21 17 13 12 14 5 8 15 20 16 16 10 8 8 9 10 14 15 10 13 8 4 14 8 5 10
6 9 -4 13 53 -20 9 18 17 21 17 -2 19 22 -42 46 52 53 32 25 12 -4 23 27 20 14 6 15 19 19 13 17 15 16 13 15 15 13 16 5 6 17 8 10
36 26 17 16 9 43 -14 -5 -56 -13 8 18 16 19 -31 64 53 59 14 11 -0 -16 5 26 39 17 15 13 9 8 21 15 5 6 23 15 11 13 3 3 4 12 20 10
29 -3 26 25 1 1 52 13 -8 -30 -2 24 30 11 12 -6 -17 -7 0 -8 -9 -3 -8 -1 -20 3 22 12 15 7 5 13 10 2 2 13 17 9 8 9 9 12 12 7
9 15 0 10 39 3 3 34 24 13 27 -2 17 12 -36 33 24 9 23 38 35 27 24 16 8 5 -4 12 20 9 8 2 10 12 8 7 6 13 15 9 8 7 7 12
14 17 2 20 10 8 36 16 13 38 -45 19 22 36 0 13 -2 0 19 -3 4 14 17 19 25 32 37 28 3 22 11 4 6 8 5 4 5 7 3 13 13 10 9 10
0 11 14 6 18 -2 9 7 -9 18 5 75 -34 4 10 20 29 24 16 32 4 -1 -6 -7 -5 0 8 15 36 2 8 10 8 6 9 11 12 6 3 1 3 3 4 -5
2 -7 17 3 4 14 10 4 11 2 13 15 14 63 -4 -10 6 12 16 13 23 12 15 16 23 20 16 7 0 3 25 23 17 11 6 3 12 19 20 11 9 3 -4 -0
17 5 2 -9 -12 -1 5 -3 -2 8 5 -10 -13 -4 -9 -21 -8 -0 -9 -18 5 0 5 6 5 11 10 11 14 16 14 8 13 13 16 16 4 15 11 12 23 15 11 14
2 6 5 5 6 8 8 7 7 5 -0 1 -4 -1 1 -0 3 3 -17 0 10 10 8 2 6 11 3 5 9 5 8 12 10 9 11 15 10 8 15 13 7 9 16 11
9 8 3 8 16 19 17 7 4 9 8 7 6 5 17 7 13 14 20 28 27 12 16 15 9 15 5 14 3 1 12 11 5 -2 8 19 18 1 24 18 27 3 3 11
6 7 1 15 13 8 41 39 37 29 20 15 7 10 8 7 9 12 10 14 8 13 11 14 10 8 13 13 14 12 6 10 22 19 21 4 16 11 12 29 18 22 36 31
6 0 7 -6 17 31 25 0 -2 -1 11 14 15 15 16 16 14 11 13 14 14 12 17 21 12 7 8 9 6 9 4 9 3 9 22 10 6 19 13 21 26 32 23 22
31 19 -2 -1 -3 -23 7 52 40 27 3 10 11 15 17 17 19 19 23 17 18 20 20 16 28 14 13 6 8 13 9 5 8 8 2 4 15 1 19 20 27 16 9 5
15 29 -7 -4 2 23 -3 -1 11 -2 13 62 4 -2 1 -8 11 15 7 -8 12 2 -10 5 -7 22 20 20 2 8 10 10 9 7 10 8 4 16 -4 21 16 12 7 5
8 17 9 7 8 12 -5 8 22 17 -16 -19 -7 -3 2 1 -0 -5 -8 1 -2 2 -5 4 14 7 10 30 24 6 4 10 10 9 6 11 8 3 17 -1 -4 29 7 7
2 -0 14 31 24 30 27 11 23 -2 -4 -11 -19 13 14 12 14 8 7 19 12 6 3 1 2 10 8 7 21 24 22 -2 8 10 8 7 8 9 4 19 2 16 -3 6
7 18 -4 -16 -20 -37 -34 -19 -4 7 8 16 16 8 8 8 10 19 13 10 10 11 12 14 16 17 17 6 12 13 22 34 14 6 8 6 9 7 7 12 15 17 11 3
11 10 9 10 18 14 2 5 15 17 15 19 15 11 13 10 7 16 23 18 18 17 14 17 13 13 14 6 9 12 13 15 37 14 5 7 8 9 9 11 12 13 16 9
7 -0 9 2 13 23 15 5 3 7 12 12 15 15 14 14 8 7 15 13 8 16 16 11 8 12 13 5 10 4 14 8 20 34 13 2 3 17 12 1 7 7 8 10
38 16 17 6 7 4 12 9 13 11 13 8 4 3 6 11 12 14 9 12 12 2 -1 6 7 8 4 9 6 10 11 9 3 21 34 4 1 2 16 11 11 6 5 8
Height
3032 3036 3033 3037 3045 3052 3057 3059 3060 3064 3069 3069 3068 3070 3074 3076 3075 3079 3084 3087 3091 3095 3102 3105 3107 3110 3113 3116 3119 3122 3127 3130 3132 3134 3137 3139 3142 3144 3146 3147 3149 3149 3151 3151
3029 3022 3022 3039 3044 3047 3051 3053 3056 3060 3062 3063 3063 3063 3067 3067 3066 3071 3075 3079 3083 3088 3092 3097 3099 3102 3105 3109 3112 3116 3119 3123 3125 3127 3130 3133 3135 3137 3139 3141 3142 3144 3145 3146
3016 3013 3029 3033 3037 3041 3042 3045 3051 3056 3056 3057 3058 3055 3057 3058 3060 3062 3065 3070 3074 3079 3083 3086 3091 3094 3097 3101 3104 3109 3112 3115 3117 3120 3123 3124 3127 3128 3130 3132 3135 3137 3138 3139
3013 3016 3020 3023 3027 3033 3034 3041 3048 3051 3053 3050 3054 3041 3048 3050 3052 3053 3056 3061 3065 3069 3072 3075 3078 3083 3088 3091 3096 3099 3103 3106 3108 3112 3113 3115 3117 3119 3124 3127 3128 3129 3131 3132
3004 3009 3011 3016 3016 3026 3025 3039 3042 3045 3046 3049 3046 3045 3031 3043 3043 3044 3050 3054 3056 3058 3061 3066 3069 3073 3077 3081 3085 3088 3092 3095 3099 3101 3104 3106 3108 3112 3115 3116 3117 3120 3122 3125
3000 3003 3006 3010 3017 3020 3028 3033 3037 3041 3042 3038 3031 3041 3017 3032 3031 3040 3045 3048 3049 3049 3053 3057 3060 3063 3067 3071 3074 3078 3082 3085 3088 3090 3093 3095 3098 3102 3104 3106 3108 3110 3113 3116
2999 2999 3003 3005 3009 3016 3020 3026 3030 3033 3030 3018 3027 3034 3014 3021 3026 3032 3035 3038 3039 3041 3044 3045 3049 3054 3057 3060 3065 3067 3071 3074 3077 3079 3080 3083 3087 3091 3094 3097 3099 3100 3103 3107
2994 2998 3000 3003 3004 3008 3010 3014 3010 3013 3011 3011 3021 3016 3009 3022 3026 3026 3030 3032 3034 3035 3036 3036 3038 3040 3045 3049 3052 3055 3060 3064 3066 3069 3071 3074 3077 3080 3084 3087 3090 3092 3095 3099
2997 2995 2995 2995 2997 3001 3003 3004 3009 3012 3009 3007 3006 3006 3010 3015 3017 3019 3025 3026 3025 3023 3025 3029 3031 3034 3036 3039 3042 3045 3048 3050 3054 3058 3061 3064 3067 3070 3075 3078 3081 3083 3086 3090
3000 2998 2994 2995 2996 2999 2997 3003 3008 3008 3007 3005 3000 3000 3004 3007 3009 3012 3012 3013 3014 3015 3018 3019 3021 3024 3027 3030 3032 3034 3037 3041 3044 3046 3049 3053 3057 3059 3063 3067 3071 3074 3077 3081
2999 2999 2996 2996 2995 2993 2994 2995 2996 2997 2998 2994 2993 2992 3002 2999 3004 3009 3007 3007 3010 3011 3010 3010 3011 3014 3016 3020 3023 3025 3028 3031 3034 3037 3040 3043 3046 3051 3054 3057 3061 3064 3068 3070
3000 2999 2996 2995 2994 2994 2994 2993 2991 2991 2988 2991 2994 2993 2991 2994 2996 2998 2999 3001 3001 3003 3005 3006 3006 3007 3009 3011 3013 3017 3019 3022 3024 3026 3029 3031 3035 3040 3043 3048 3052 3055 3058 3060
3002 3000 2995 2993 2995 2994 2993 2992 2992 2992 2991 2990 2990 2988 2990 2991 2993 2993 2995 2995 2996 2997 2998 2999 3001 3002 3003 3004 3006 3008 3010 3013 3015 3018 3019 3022 3024 3027 3031 3036 3040 3045 3048 3049
3002 3001 3001 2997 2996 2996 2996 2994 2994 2993 2994 2990 2989 2986 2988 2989 2991 2990 2988 2989 2990 2993 2994 2995 2996 2996 2997 2998 2999 3001 3003 3004 3006 3008 3010 3012 3015 3017 3020 3023 3027 3029 3032 3036
3002 3000 2999 2997 2995 2994 2993 2991 2990 2989 2987 2989 2981 2982 2981 2986 2986 2985 2984 2985 2985 2986 2987 2989 2989 2990 2990 2991 2993 2994 2995 2997 2998 3000 3001 3003 3005 3007 3008 3011 3014 3017 3019 3022
2999 2998 2996 2990 2991 2990 2986 2983 2982 2983 2982 2982 2978 2975 2971 2976 2978 2977 2977 2975 2974 2977 2979 2980 2981 2981 2982 2983 2984 2986 2986 2988 2989 2991 2992 2994 2995 2997 2998 2999 3002 3005 3007 3011
2997 2995 2993 2986 2987 2985 2979 2976 2976 2975 2975 2975 2973 2971 2966 2967 2971 2970 2969 2968 2968 2966 2968 2969 2970 2971 2972 2974 2975 2977 2978 2979 2980 2982 2984 2986 2986 2987 2989 2989 2991 2994 2998 3002
2990 2991 2991 2985 2985 2979 2972 2971 2970 2969 2967 2966 2965 2965 2961 2961 2961 2960 2960 2959 2958 2957 2956 2957 2959 2959 2961 2963 2965 2967 2969 2971 2972 2973 2975 2977 2978 2978 2979 2980 2981 2984 2989 2995
2984 2987 2986 2983 2978 2972 2969 2966 2964 2963 2958 2962 2961 2958 2955 2954 2952 2949 2951 2950 2947 2946 2946 2945 2945 2947 2949 2950 2952 2954 2958 2960 2962 2963 2966 2968 2970 2972 2971 2972 2973 2977 2982 2987
2982 2981 2982 2978 2975 2967 2963 2963 2961 2961 2954 2953 2955 2954 2951 2948 2945 2945 2945 2939 2939 2939 2936 2936 2936 2935 2938 2940 2940 2943 2945 2947 2950 2953 2955 2957 2960 2963 2966 2967 2968 2971 2976 2980
2979 2977 2975 2973 2970 2963 2960 2958 2959 2959 2957 2952 2950 2948 2945 2942 2941 2935 2935 2931 2930 2928 2925 2925 2925 2925 2925 2929 2930 2930 2932 2935 2937 2941 2944 2947 2950 2953 2956 2959 2963 2965 2967 2971
2976 2973 2969 2967 2965 2960 2955 2955 2955 2952 2948 2945 2942 2940 2934 2930 2925 2922 2922 2920 2919 2918 2917 2917 2914 2914 2915 2916 2918 2917 2920 2922 2924 2927 2930 2935 2939 2942 2945 2948 2952 2955 2959 2963
2969 2969 2965 2964 2957 2953 2951 2949 2946 2944 2938 2936 2931 2929 2926 2920 2915 2911 2909 2910 2908 2906 2905 2905 2903 2901 2903 2905 2906 2905 2908 2909 2910 2914 2917 2921 2925 2930 2934 2936 2940 2944 2948 2952
2961 2960 2957 2956 2946 2946 2944 2940 2937 2933 2929 2925 2923 2920 2916 2910 2905 2899 2897 2897 2895 2895 2893 2892 2890 2889 2889 2892 2893 2892 2895 2897 2897 2900 2904 2907 2911 2916 2922 2925 2929 2932 2936 2940
2953 2952 2947 2942 2938 2936 2934 2932 2929 2924 2919 2915 2911 2908 2905 2900 2895 2891 2886 2885 2884 2882 2881 2880 2878 2877 2877 2879 2878 2879 2881 2883 2884 2886 2889 2893 2896 2901 2909 2914 2919 2923 2927 2931
2944 2940 2940 2930 2932 2930 2922 2920 2918 2913 2909 2905 2901 2895 2893 2889 2884 2881 2876 2876 2873 2871 2870 2868 2866 2864 2862 2862 2861 2861 2864 2866 2870 2871 2874 2878 2882 2888 2894 2901 2908 2912 2916 2921